Weather History for Du Bois, PA

Change the Weather History Date:

Thursday, October 3, 2013

  Actual Average Record
Temperature  
Mean Temperature 64 °F 53 °F  
Max Temperature 74 °F 63 °F 80 °F (2005)
Min Temperature 53 °F 43 °F 26 °F (1974)
Degree Days  
Heating Degree Days 1 12  
Month to date heating degree days 1 35  
Since 1 July heating degree days 204 281  
Cooling Degree Days 0 0  
Month to date cooling degree days 3 0  
Year to date cooling degree days 526 360  
Growing Degree Days 13 (Base 50)    
Moisture  
Dew Point 58 °F    
Average Humidity 81    
Maximum Humidity 93    
Minimum Humidity 68    
Precipitation  
Precipitation 0.37 in 0.10 in 3.20 in (1998)
Month to date precipitation 0.37 0.31  
Sea Level Pressure  
Sea Level Pressure 30.10 in    
Wind  
Wind Speed 4 mph (South)    
Max Wind Speed 18 mph    
Max Gust Speed 23 mph    
Visibility 4 miles    
Events Fog , Rain , Thunderstorm    
T = Trace of Precipitation, MM = Missing Value Source: NWS Daily Summary

Daily Weather History Graph

Daily Weather History Graph

Search for Another Location

Airport:

Trip Planner

Search our weather history database for the weather conditions in past years. The results will help you decide how hot, cold, wet, or windy it might be!

Date:

Astronomy

Oct. 03, 2013 Rise Set
Actual Time 7:14 AM EDT 6:53 PM EDT
Civil Twilight 6:47 AM EDT 7:21 PM EDT
Nautical Twilight 6:15 AM EDT 7:53 PM EDT
Astronomical Twilight 5:42 AM EDT 8:25 PM EDT
Moon 5:45 AM EDT (10/3) 6:01 PM EDT (10/3)
Length of Visible Light 12h 34m
Length of Day
11h 39m
Waning Crescent, 2% of the Moon is Illuminated
Oct 3
Waning Crescent
Oct 4
New
Oct 11
First Quarter
Oct 18
Full
Oct 26
Last Quarter

Hourly Weather History & Observations

Time (EDT) Temp. Dew Point Humidity Pressure Visibility Wind Dir Wind Speed Gust Speed Precip Events Conditions
12:56 AM 59.0 °F 54.0 °F 83% 30.09 in 10.0 mi Calm Calm - N/A   Clear
1:56 AM 59.0 °F 55.0 °F 87% 30.10 in 10.0 mi Calm Calm - N/A   Clear
2:56 AM 59.0 °F 55.0 °F 87% 30.09 in 4.0 mi Calm Calm - N/A   Clear
3:00 AM 57.2 °F 55.4 °F 94% 30.12 in 1.8 mi Calm Calm - N/A   Clear
3:09 AM 57.2 °F 55.4 °F 94% 30.12 in 3.0 mi East 3.5 mph - N/A   Partly Cloudy
3:25 AM 57.2 °F 55.4 °F 94% 30.12 in 2.0 mi Calm Calm - N/A   Clear
3:42 AM 57.2 °F 55.4 °F 94% 30.12 in 3.0 mi Calm Calm - N/A   Clear
3:49 AM 57.2 °F 55.4 °F 94% 30.12 in 2.5 mi Calm Calm - N/A   Clear
3:56 AM 57.9 °F 55.0 °F 90% 30.09 in 3.0 mi Calm Calm - N/A   Clear
4:03 AM 57.2 °F 55.4 °F 94% 30.12 in 2.0 mi Calm Calm - N/A   Partly Cloudy
4:12 AM 57.2 °F 53.6 °F 88% 30.13 in 0.8 mi East 3.5 mph - N/A   Mostly Cloudy
4:26 AM 57.2 °F 53.6 °F 88% 30.13 in 0.5 mi Calm Calm - N/A Fog Fog
4:38 AM 55.4 °F 53.6 °F 94% 30.13 in 1.0 mi East 3.5 mph - N/A   Mostly Cloudy
4:56 AM 54.0 °F 52.0 °F 93% 30.10 in 0.2 mi East 3.5 mph - N/A Fog Fog
5:10 AM 55.4 °F 53.6 °F 94% 30.12 in 1.0 mi East 3.5 mph - N/A   Mostly Cloudy
5:16 AM 55.4 °F 53.6 °F 94% 30.12 in 2.0 mi East 4.6 mph - N/A   Scattered Clouds
5:25 AM 53.6 °F 51.8 °F 94% 30.13 in 4.0 mi East 3.5 mph - N/A   Scattered Clouds
5:46 AM 53.6 °F 51.8 °F 94% 30.13 in 1.8 mi ENE 3.5 mph - N/A   Scattered Clouds
5:56 AM 55.0 °F 53.1 °F 93% 30.11 in 2.0 mi ENE 4.6 mph - N/A   Scattered Clouds
6:04 AM 55.4 °F 51.8 °F 88% 30.13 in 5.0 mi East 3.5 mph - N/A   Mostly Cloudy
6:17 AM 53.6 °F 51.8 °F 94% 30.13 in 2.0 mi ENE 4.6 mph - N/A   Scattered Clouds
6:32 AM 53.6 °F 51.8 °F 94% 30.13 in 1.2 mi ENE 4.6 mph - N/A   Partly Cloudy
6:49 AM 53.6 °F 51.8 °F 94% 30.13 in 3.0 mi Calm Calm - N/A   Clear
6:56 AM 54.0 °F 51.1 °F 90% 30.12 in 3.0 mi Calm Calm - N/A   Clear
8:56 AM 60.1 °F 55.9 °F 86% 30.13 in 7.0 mi SE 4.6 mph - N/A   Scattered Clouds
9:56 AM 64.9 °F 59.0 °F 81% 30.12 in 6.0 mi South 3.5 mph - N/A   Haze
10:56 AM 66.9 °F 60.1 °F 79% 30.12 in 6.0 mi Variable 3.5 mph - N/A   Haze
12:56 PM 73.0 °F 62.1 °F 68% 30.09 in 9.0 mi Variable 5.8 mph - N/A   Overcast
1:13 PM 71.6 °F 62.6 °F 73% 30.11 in 8.0 mi WSW 6.9 mph - N/A   Overcast
1:49 PM 73.4 °F 62.6 °F 69% 30.10 in 10.0 mi SW 8.1 mph - N/A   Overcast
1:56 PM 73.0 °F 62.1 °F 68% 30.07 in 10.0 mi WSW 9.2 mph - N/A   Overcast
2:18 PM 71.6 °F 62.6 °F 73% 30.09 in 1.8 mi SW 5.8 mph - 0.05 in Rain Light Rain
2:29 PM 69.8 °F 64.4 °F 83% 30.09 in 0.8 mi Calm Calm - 0.12 in Rain Light Rain
2:32 PM 69.8 °F 64.4 °F 83% 30.09 in 1.0 mi SW 3.5 mph - 0.12 in Rain Light Rain
2:56 PM 70.0 °F 66.0 °F 87% 30.06 in 4.0 mi Calm Calm - 0.12 in Rain Light Rain
3:56 PM 73.0 °F 64.9 °F 76% 30.04 in 9.0 mi SW 5.8 mph - 0.00 in   Overcast
4:56 PM 73.0 °F 64.9 °F 76% 30.04 in 9.0 mi SW 4.6 mph - N/A   Mostly Cloudy
5:56 PM 73.0 °F 64.9 °F 76% 30.04 in 9.0 mi SW 3.5 mph - N/A   Mostly Cloudy
7:56 PM 69.1 °F 62.1 °F 78% 30.06 in 10.0 mi SSW 4.6 mph - N/A   Clear
8:56 PM 69.1 °F 62.1 °F 78% 30.06 in 10.0 mi SSW 3.5 mph - N/A   Clear
9:10 PM 68.0 °F 62.6 °F 83% 30.09 in 9.0 mi SW 4.6 mph - N/A Thunderstorm Scattered Clouds
9:54 PM 64.4 °F 60.8 °F 88% 30.10 in 3.0 mi SW 5.8 mph - 0.10 in Rain , Thunderstorm Light Rain
9:56 PM 64.0 °F 61.0 °F 90% 30.08 in 3.0 mi SW 5.8 mph - 0.11 in Rain , Thunderstorm Light Rain
10:06 PM 64.4 °F 60.8 °F 88% 30.10 in 2.0 mi WSW 6.9 mph - 0.05 in Rain Light Rain
10:13 PM 64.4 °F 60.8 °F 88% 30.11 in 2.0 mi SW 4.6 mph - 0.08 in Rain , Thunderstorm Light Rain
10:28 PM 64.4 °F 62.6 °F 94% 30.10 in 2.5 mi Calm Calm - 0.13 in Rain Light Rain
10:40 PM 64.4 °F 62.6 °F 94% 30.11 in 5.0 mi SW 3.5 mph - 0.14 in Rain Light Rain
10:56 PM 66.0 °F 62.1 °F 87% 30.08 in 7.0 mi South 4.6 mph - 0.14 in   Overcast